Location: R�serve Fauniques des Laurentides
(47.3100°N, 71.1900°W)
Time: 13:24:12
(UTC-04:00)

Amateur Radio Satellites - All Passes

Search period start: 24 April 2014 12:54
Search period end: 25 April 2014 12:54
Location: R�serve Fauniques des Laurentides, 47.3100°N, 71.1900°W

Satellite Date Start Highest point End Downlink Frequencies (MHz)
Time Altitude Azimuth
AO-27 24 Apr 13:14:00 13:18:50 41° 67° (ENE) 13:23:41 436.795 MHz FM
Oscar 19 24 Apr 13:15:29 13:20:36 72° 73° (ENE) 13:25:47 437.125 CW, 437.150 USB
KITSAT 1 24 Apr 13:18:03 13:21:52 14° 262° (W) 13:25:40 435.175 FM
JAS-1B 24 Apr 13:20:13 13:22:25 12° 49° (NE) 13:24:32 435.800 - 435.900 CW/SSB
ITAMSAT 1 24 Apr 13:23:07 13:28:04 48° 68° (ENE) 13:33:02 435.822 SSB
ISS 24 Apr 13:24:34 13:27:19 24° 140° (SE) 13:30:06 145.800 FM
Oscar 16 24 Apr 13:24:43 13:29:53 89° 255° (WSW) 13:35:06 437.025 USB, Beacon 2401.1428
Gurwin Techsat 1B 24 Apr 13:37:39 13:41:50 24° 61° (ENE) 13:46:01 435.225 FM
AO-7 24 Apr 13:49:28 13:54:46 19° 42° (NE) 14:00:05 29.400 - 29.500 MHz
SO-50 24 Apr 14:06:53 14:10:58 36° 118° (ESE) 14:15:06 436.795 FM
Uribyol 2 24 Apr 14:09:58 14:15:06 67° 258° (WSW) 14:20:15 436.500 FM
AO-Echo 24 Apr 14:13:57 14:19:08 79° 256° (WSW) 14:24:11 ?
RS-15 24 Apr 14:20:06 14:31:04 72° 48° (NE) 14:42:14 29.354 - 29.394 USB, Beacon 29.352 USB
TMSAT-1 24 Apr 14:21:26 14:26:19 39° 66° (ENE) 14:31:12 436.925 FM
Uosat F 24 Apr 14:38:41 14:42:33 23° 61° (ENE) 14:46:24 435.120 FM
AO-27 24 Apr 14:53:58 14:58:28 30° 265° (W) 15:03:00 436.795 MHz FM
Oscar 19 24 Apr 14:57:16 15:00:31 17° 271° (W) 15:03:48 437.125 CW, 437.150 USB
ISS 24 Apr 15:00:29 15:03:49 71° 338° (NNW) 15:07:10 145.800 FM
ITAMSAT 1 24 Apr 15:03:34 15:07:48 25° 267° (W) 15:12:04 435.822 SSB
JAS-1B 24 Apr 15:04:46 15:12:01 57° 69° (ENE) 15:18:09 435.800 - 435.900 CW/SSB
Oscar 16 24 Apr 15:07:44 15:10:00 13° 273° (W) 15:12:16 437.025 USB, Beacon 2401.1428
Gurwin Techsat 1B 24 Apr 15:16:14 15:21:27 56° 260° (W) 15:26:41 435.225 FM
Saudisat 1A 24 Apr 15:27:11 15:27:50 10° 15° (NNE) 15:28:29 436.775 MHz
AO-7 24 Apr 15:37:56 15:46:04 65° 64° (ENE) 15:54:14 29.400 - 29.500 MHz
OPAL 24 Apr 15:44:51 15:50:06 72° 105° (ESE) 15:55:18 ?
SO-50 24 Apr 15:47:23 15:51:32 36° 318° (NW) 15:55:46 436.795 FM
AO-Echo 24 Apr 15:57:22 15:58:40 11° 274° (W) 15:59:58 ?
UOSAT-12 24 Apr 15:59:10 16:03:06 29° 116° (ESE) 16:07:06 437.025 FM, 437.400 FM
TMSAT-1 24 Apr 16:01:35 16:06:18 32° 265° (W) 16:11:03 436.925 FM
Uosat F 24 Apr 16:16:03 16:20:59 56° 259° (W) 16:25:56 435.120 FM
RS-15 24 Apr 16:33:01 16:42:42 39° 251° (WSW) 16:52:37 29.354 - 29.394 USB, Beacon 29.352 USB
ISS 24 Apr 16:37:42 16:40:51 37° 358° (N) 16:44:01 145.800 FM
JAS-1B 24 Apr 16:56:30 17:02:54 30° 265° (W) 17:08:31 435.800 - 435.900 CW/SSB
Hamsat 24 Apr 17:02:47 17:06:00 21° 64° (ENE) 17:09:15 145.90 MHz
Saudisat 1A 24 Apr 17:05:03 17:08:55 28° 39° (NE) 17:12:44 436.775 MHz
OPAL 24 Apr 17:24:43 17:28:28 20° 304° (NW) 17:32:12 ?
SO-50 24 Apr 17:31:39 17:33:26 12° 341° (NNW) 17:35:14 436.795 FM
AO-7 24 Apr 17:32:07 17:39:22 33° 265° (W) 17:46:41 29.400 - 29.500 MHz
JAS-2 24 Apr 17:38:36 17:42:45 23° 61° (ENE) 17:46:46 435.800 - 435.900 CW/SSB, 435.910 FM
UOSAT-12 24 Apr 17:38:40 17:43:05 45° 315° (NW) 17:47:36 437.025 FM, 437.400 FM
SO-67 24 Apr 17:55:18 17:56:43 12° 62° (ENE) 17:58:09 435.3500 MHz FM
ISS 24 Apr 18:14:38 18:17:57 59° 18° (NNE) 18:21:16 145.800 FM
STRAND 1 24 Apr 18:32:45 18:36:38 22° 92° (E) 18:40:31 ?
Hamsat 24 Apr 18:37:43 18:41:44 43° 262° (W) 18:45:50 145.90 MHz
Saudisat 1A 24 Apr 18:44:28 18:48:44 49° 239° (WSW) 18:52:57 436.775 MHz
UOSAT-12 24 Apr 19:21:57 19:24:26 14° 338° (NNW) 19:26:56 437.025 FM, 437.400 FM
JAS-2 24 Apr 19:22:10 19:27:36 55° 259° (W) 19:32:44 435.800 - 435.900 CW/SSB, 435.910 FM
SO-67 24 Apr 19:26:00 19:29:26 56° 260° (W) 19:32:54 435.3500 MHz FM
HO-68 24 Apr 19:43:22 19:49:40 35° 58° (ENE) 19:55:59 435.675 MHz FM
ISS 24 Apr 19:51:31 19:54:33 32° 217° (SW) 19:57:35 145.800 FM
STRAND 1 24 Apr 20:11:12 20:16:11 55° 290° (WNW) 20:21:08 ?
Oscar 11 24 Apr 20:32:40 20:35:52 21° 63° (ENE) 20:39:06 145.825 FM, Beacon 2401.500 USB
SO-50 24 Apr 20:55:14 20:58:35 19° 31° (NNE) 21:01:57 436.795 FM
MaSat-1 24 Apr 20:57:48 21:00:26 57° 301° (WNW) 21:02:53 437.345 MHz
HO-68 24 Apr 21:30:06 21:37:05 56° 258° (WSW) 21:44:08 435.675 MHz FM
Oscar 11 24 Apr 22:07:38 22:11:47 46° 261° (W) 22:15:58 145.825 FM, Beacon 2401.500 USB
FUNcube-1 24 Apr 22:14:45 22:18:54 71° 74° (ENE) 22:23:04 145.950 - 145.970 MHz USB
SO-50 24 Apr 22:35:12 22:39:51 82° 52° (NE) 22:44:34 436.795 FM
PCSat 24 Apr 22:38:28 22:42:39 23° 108° (ESE) 22:46:51 145.825 MHz
UOSAT-12 24 Apr 22:45:42 22:48:49 17° 27° (NNE) 22:51:56 437.025 FM, 437.400 FM
Sapphire 24 Apr 23:35:56 23:41:15 61° 118° (ESE) 23:46:37 437.095 MHz 1200 baud AX-25 AFSK
FUNcube-1 24 Apr 23:54:17 23:55:50 12° 272° (W) 23:57:24 145.950 - 145.970 MHz USB
KITSAT 1 25 Apr 00:02:29 00:05:11 12° 96° (E) 00:07:53 435.175 FM
SO-50 25 Apr 00:17:12 00:19:51 15° 250° (WSW) 00:22:31 436.795 FM
PCSat 25 Apr 00:20:16 00:25:38 63° 307° (NW) 00:31:03 145.825 MHz
UOSAT-12 25 Apr 00:25:10 00:29:53 64° 49° (NE) 00:34:34 437.025 FM, 437.400 FM
Sapphire 25 Apr 01:20:23 01:25:04 29° 319° (NW) 01:29:47 437.095 MHz 1200 baud AX-25 AFSK
Oscar 19 25 Apr 01:24:44 01:28:34 20° 91° (E) 01:32:23 437.125 CW, 437.150 USB
OPAL 25 Apr 01:25:20 01:29:37 28° 60° (ENE) 01:33:57 ?
AO-27 25 Apr 01:26:25 01:27:37 11° 86° (E) 01:28:50 436.795 MHz FM
Oscar 16 25 Apr 01:33:45 01:38:05 26° 93° (E) 01:42:23 437.025 USB, Beacon 2401.1428
ITAMSAT 1 25 Apr 01:34:33 01:36:53 13° 87° (E) 01:39:13 435.822 SSB
KITSAT 1 25 Apr 01:50:58 01:58:52 59° 117° (ESE) 02:06:48 435.175 FM
UOSAT-12 25 Apr 02:06:11 02:09:37 20° 248° (WSW) 02:13:03 437.025 FM, 437.400 FM
PCSat 25 Apr 02:06:38 02:10:10 17° 330° (NNW) 02:13:44 145.825 MHz
AO-Echo 25 Apr 02:18:44 02:22:38 25° 93° (E) 02:26:29 ?
Uribyol 2 25 Apr 02:19:40 02:24:23 34° 96° (E) 02:29:05 436.500 FM
TMSAT-1 25 Apr 02:36:09 02:37:54 12° 85° (E) 02:39:38 436.925 FM
AO-27 25 Apr 03:02:48 03:08:01 78° 104° (ESE) 03:13:12 436.795 MHz FM
Oscar 19 25 Apr 03:03:11 03:08:20 60° 289° (WNW) 03:13:26 437.125 CW, 437.150 USB
OPAL 25 Apr 03:03:25 03:08:17 46° 259° (WSW) 03:13:15 ?
Sapphire 25 Apr 03:08:59 03:10:24 11° 344° (NNW) 03:11:51 437.095 MHz 1200 baud AX-25 AFSK
ITAMSAT 1 25 Apr 03:11:54 03:17:07 90° 105° (ESE) 03:22:19 435.822 SSB
Oscar 16 25 Apr 03:12:40 03:17:40 48° 292° (WNW) 03:22:38 437.025 USB, Beacon 2401.1428
Gurwin Techsat 1B 25 Apr 03:29:09 03:34:17 46° 99° (E) 03:39:22 435.225 FM
AO-7 25 Apr 03:37:48 03:42:23 16° 85° (E) 03:46:57 29.400 - 29.500 MHz
KITSAT 1 25 Apr 03:46:54 03:54:36 44° 320° (NW) 04:02:20 435.175 FM
AO-Echo 25 Apr 03:57:08 04:01:36 41° 292° (WNW) 04:05:59 ?
Uribyol 2 25 Apr 03:59:10 04:03:52 36° 295° (WNW) 04:08:34 436.500 FM
TMSAT-1 25 Apr 04:13:21 04:18:41 80° 104° (ESE) 04:23:59 436.925 FM
Uosat F 25 Apr 04:20:40 04:25:15 35° 97° (E) 04:29:48 435.120 FM
JAS-1B 25 Apr 04:35:47 04:41:25 62° 102° (ESE) 04:47:24 435.800 - 435.900 CW/SSB
AO-27 25 Apr 04:43:33 04:46:56 18° 303° (WNW) 04:50:20 436.795 MHz FM
Oscar 19 25 Apr 04:45:32 04:46:38 11° 309° (NW) 04:47:45 437.125 CW, 437.150 USB
RS-15 25 Apr 04:49:22 04:58:29 30° 104° (ESE) 05:07:20 29.354 - 29.394 USB, Beacon 29.352 USB
ITAMSAT 1 25 Apr 04:52:56 04:55:55 16° 304° (NW) 04:58:53 435.822 SSB
Gurwin Techsat 1B 25 Apr 05:09:33 05:14:02 29° 297° (WNW) 05:18:31 435.225 FM
MaSat-1 25 Apr 05:16:59 05:19:56 62° 60° (ENE) 05:23:26 437.345 MHz
AO-7 25 Apr 05:28:19 05:36:40 72° 106° (ESE) 05:44:59 29.400 - 29.500 MHz
PCSat 25 Apr 05:39:30 05:42:07 13° 23° (NNE) 05:44:45 145.825 MHz
KITSAT 1 25 Apr 05:46:22 05:52:23 22° 347° (NNW) 05:58:24 435.175 FM
STRAND 1 25 Apr 05:51:32 05:56:20 43° 67° (ENE) 06:01:10 ?
TMSAT-1 25 Apr 05:54:32 05:57:59 18° 303° (WNW) 06:01:25 436.925 FM
Uosat F 25 Apr 05:59:33 06:04:01 33° 295° (WNW) 06:08:28 435.120 FM
Hamsat 25 Apr 06:20:30 06:24:15 27° 94° (E) 06:27:59 145.90 MHz
JAS-1B 25 Apr 06:27:27 06:31:45 23° 302° (WNW) 06:36:10 435.800 - 435.900 CW/SSB
JAS-2 25 Apr 06:27:47 06:30:55 15° 89° (E) 06:34:12 435.800 - 435.900 CW/SSB, 435.910 FM
AO-40 25 Apr 06:28:45 09:44:14 22° 145° (SE) 11:15:19 Beacon 2401.320
Sapphire 25 Apr 06:37:55 06:42:11 23° 36° (NE) 06:46:26 437.095 MHz 1200 baud AX-25 AFSK
RS-15 25 Apr 06:58:18 07:09:36 85° 308° (NW) 07:20:37 29.354 - 29.394 USB, Beacon 29.352 USB
AO-7 25 Apr 07:21:47 07:28:53 33° 307° (NW) 07:36:00 29.400 - 29.500 MHz
PCSat 25 Apr 07:21:56 07:27:05 41° 47° (NE) 07:32:11 145.825 MHz
STRAND 1 25 Apr 07:31:22 07:35:42 28° 266° (W) 07:40:03 ?
KITSAT 1 25 Apr 07:44:48 07:51:04 23° 17° (NNE) 07:57:18 435.175 FM
Hamsat 25 Apr 07:56:20 08:00:16 33° 292° (WNW) 08:04:12 145.90 MHz
JAS-2 25 Apr 08:11:06 08:16:38 87° 286° (WNW) 08:22:47 435.800 - 435.900 CW/SSB, 435.910 FM
SO-67 25 Apr 08:20:25 08:23:55 71° 284° (WNW) 08:27:24 435.3500 MHz FM
Sapphire 25 Apr 08:20:52 08:26:19 86° 238° (WSW) 08:31:44 437.095 MHz 1200 baud AX-25 AFSK
HO-68 25 Apr 08:54:43 09:00:27 25° 91° (E) 09:06:08 435.675 MHz FM
Saudisat 1A 25 Apr 08:54:51 08:58:06 20° 113° (ESE) 09:01:22 436.775 MHz
PCSat 25 Apr 09:05:30 09:10:29 38° 247° (WSW) 09:15:26 145.825 MHz
RS-15 25 Apr 09:13:29 09:23:37 38° 336° (NNW) 09:33:38 29.354 - 29.394 USB, Beacon 29.352 USB
AO-7 25 Apr 09:18:17 09:19:07 10° 332° (NNW) 09:19:57 29.400 - 29.500 MHz
KITSAT 1 25 Apr 09:40:38 09:48:33 52° 44° (NE) 09:56:24 435.175 FM
Oscar 11 25 Apr 09:52:23 09:56:02 25° 94° (E) 09:59:40 145.825 FM, Beacon 2401.500 USB
JAS-2 25 Apr 09:57:55 10:01:08 16° 303° (WNW) 10:04:30 435.800 - 435.900 CW/SSB, 435.910 FM
FUNcube-1 25 Apr 10:02:55 10:04:14 11° 88° (E) 10:05:33 145.950 - 145.970 MHz USB
Sapphire 25 Apr 10:06:11 10:08:55 14° 257° (WSW) 10:11:39 437.095 MHz 1200 baud AX-25 AFSK
Saudisat 1A 25 Apr 10:32:55 10:37:20 59° 312° (NW) 10:41:46 436.775 MHz
HO-68 25 Apr 10:41:37 10:48:48 73° 291° (WNW) 10:55:57 435.675 MHz FM
Oscar 11 25 Apr 11:28:19 11:32:19 36° 292° (WNW) 11:36:18 145.825 FM, Beacon 2401.500 USB
RS-15 25 Apr 11:30:11 11:39:46 33° 11° (N) 11:49:21 29.354 - 29.394 USB, Beacon 29.352 USB
KITSAT 1 25 Apr 11:36:18 11:43:57 47° 247° (WSW) 11:51:32 435.175 FM
FUNcube-1 25 Apr 11:36:53 11:41:12 82° 285° (WNW) 11:45:36 145.950 - 145.970 MHz USB
Uribyol 2 25 Apr 12:05:11 12:07:11 12° 53° (NE) 12:09:12 436.500 FM
Saudisat 1A 25 Apr 12:15:10 12:17:51 15° 333° (NNW) 12:20:32 436.775 MHz
HO-68 25 Apr 12:30:45 12:35:22 19° 312° (NW) 12:39:59 435.675 MHz FM
ISS 25 Apr 12:36:38 12:38:41 16° 136° (SE) 12:40:46 145.800 FM
Oscar 19 25 Apr 12:44:27 12:49:13 40° 67° (ENE) 12:54:02 437.125 CW, 437.150 USB
